Date,TemperatureHighF,TemperatureAvgF,TemperatureLowF,DewpointHighF,DewpointAvgF,DewpointLowF,HumidityHigh,HumidityAvg,HumidityLow,PressureMaxIn,PressureMinIn,WindSpeedMaxMPH,WindSpeedAvgMPH,GustSpeedMaxMPH,PrecipitationSumIn
2013-1-1,22.4,11.6,2.0,14.4,6.6,-2.2,89,81,69,30.70,30.45,7,2,12,0.00
2013-1-2,22.4,11.0,0.3,11.0,5.4,-4.1,88,78,60,30.76,30.69,5,1,5,0.00
2013-1-3,30.1,9.0,-0.2,14.2,3.5,-4.8,89,79,48,30.70,30.52,7,1,10,0.00
2013-1-4,37.1,15.8,-1.8,20.1,7.5,-6.0,96,71,39,30.60,30.46,13,3,15,0.00
2013-1-5,38.7,25.5,14.2,20.9,16.1,9.8,88,69,46,30.52,30.23,14,6,17,0.00
2013-1-6,38.8,27.0,15.0,22.8,17.6,10.8,87,69,50,30.23,30.03,13,4,16,0.00
2013-1-7,35.9,31.8,26.6,26.3,22.0,17.9,72,67,59,30.12,29.83,15,9,24,0.00
2013-1-8,41.5,36.6,31.5,29.8,23.8,17.9,72,60,41,30.07,29.85,16,8,26,0.00
2013-1-9,45.0,40.0,34.5,29.1,25.2,21.5,64,55,47,30.03,29.56,18,14,27,0.00
2013-1-10,40.9,23.8,8.1,27.9,18.5,4.0,92,81,49,29.88,29.52,15,9,21,0.00
2013-1-11,11.5,5.7,-4.5,5.3,0.6,-8.8,92,79,74,30.42,29.88,11,4,15,0.00
2013-1-12,12.3,-3.3,-12.8,4.5,-7.9,-17.7,92,80,70,30.57,30.41,8,2,9,0.02
2013-1-13,11.8,-1.2,-11.4,3.3,-6.7,-16.4,92,77,64,30.64,30.54,8,3,11,0.00
2013-1-14,15.9,4.6,-8.6,7.4,-0.8,-13.9,92,78,64,30.66,30.52,11,4,17,0.00
2013-1-15,26.6,14.6,5.7,21.8,10.9,2.2,88,85,81,30.67,30.59,10,2,11,0.00
2013-1-16,32.0,17.5,3.8,21.3,12.0,-0.4,91,79,62,30.70,30.61,7,2,11,0.03
2013-1-17,38.4,23.0,13.5,21.4,14.5,6.9,81,70,47,30.68,30.43,11,5,14,0.01
2013-1-18,49.1,36.1,21.0,20.8,16.1,10.8,73,45,27,30.44,30.15,14,6,21,0.02
2013-1-19,46.3,26.3,13.2,20.0,12.8,6.2,78,59,29,30.44,30.24,9,4,13,0.00
2013-1-20,39.2,22.3,8.7,21.2,12.9,3.6,89,68,47,30.49,30.42,9,2,12,0.00
2013-1-21,48.9,31.9,16.3,20.7,15.0,9.2,76,52,29,30.45,30.21,11,6,17,0.00
2013-1-22,38.2,21.1,5.8,19.7,10.7,0.4,88,66,37,30.31,30.21,9,2,14,0.00
2013-1-23,50.8,32.4,13.0,23.9,15.8,8.6,92,56,23,30.31,30.01,16,5,24,0.00
2013-1-24,44.5,36.0,22.0,30.8,25.2,17.4,87,66,35,30.16,29.95,15,7,27,0.00
2013-1-25,44.1,38.0,32.5,32.0,27.5,22.3,81,66,55,30.17,29.93,13,7,18,0.00
2013-1-26,52.7,37.3,28.1,33.4,28.9,25.8,91,73,44,29.93,29.66,17,8,20,0.00
2013-1-27,33.5,24.2,13.0,26.9,19.2,7.3,92,81,63,30.00,29.80,7,2,11,0.08
2013-1-28,31.2,23.2,13.7,17.2,14.4,8.7,86,69,53,30.02,29.86,11,5,17,0.00
2013-1-29,26.2,20.4,13.8,21.8,15.5,9.7,90,81,69,30.23,29.84,11,2,14,0.00
2013-1-30,37.7,30.9,18.5,29.8,24.5,14.0,89,77,61,30.18,30.09,18,7,27,0.02
2013-1-31,43.5,37.8,33.1,29.9,27.0,24.8,77,65,57,30.17,30.07,15,7,21,0.00
2013-2-1,41.6,35.7,28.5,29.0,24.4,18.3,87,64,46,30.37,30.04,16,7,21,0.02
2013-2-2,46.0,30.9,20.9,28.3,20.8,14.6,85,67,41,30.49,30.33,11,5,15,0.00
2013-2-3,44.3,32.3,23.5,24.8,19.7,15.4,79,61,39,30.33,30.07,11,5,15,0.00
2013-2-4,42.1,36.8,33.4,28.8,22.8,16.5,68,57,46,30.07,29.96,13,4,18,0.00
2013-2-5,48.7,35.8,24.8,28.9,24.9,19.5,91,66,38,29.99,29.75,12,4,15,0.00
2013-2-6,41.2,31.7,22.1,28.9,20.6,14.7,84,64,41,30.13,29.85,12,4,19,0.00
2013-2-7,40.8,32.5,23.1,21.5,17.9,14.5,77,55,42,30.11,29.92,20,11,25,0.00
2013-2-8,36.9,25.3,13.7,25.0,18.2,9.7,90,75,57,30.07,29.96,11,3,16,0.00
2013-2-9,34.7,25.2,17.2,22.6,18.8,13.0,92,78,49,30.13,29.92,12,3,17,0.00
2013-2-10,34.8,21.0,8.0,24.7,15.7,2.9,92,80,58,30.28,30.13,8,1,13,0.11
2013-2-11,31.0,17.4,7.7,21.7,11.1,3.0,92,77,64,30.33,30.24,11,4,13,0.00
2013-2-12,38.8,31.4,19.1,27.5,22.7,14.8,84,70,59,30.32,30.14,14,6,19,0.00
2013-2-13,41.4,36.1,32.6,26.8,22.6,16.0,73,58,45,30.19,30.03,15,6,26,0.00
2013-2-14,36.8,31.9,22.7,25.1,20.4,17.7,85,63,47,30.45,30.19,17,9,25,0.00
2013-2-15,43.4,31.8,21.8,26.5,22.5,17.2,92,70,48,30.51,30.35,7,1,11,0.00
2013-2-16,49.8,36.3,23.6,29.0,23.9,17.7,88,63,41,30.35,29.79,24,7,28,0.00
2013-2-17,33.4,30.0,23.0,27.5,20.8,15.4,87,69,56,30.10,29.79,16,5,21,0.00
2013-2-18,37.6,29.3,22.2,16.4,13.1,9.5,73,52,33,30.15,29.91,19,9,26,0.00
2013-2-19,40.7,31.2,19.9,20.9,15.0,9.3,92,52,36,29.91,29.65,19,11,26,0.00
2013-2-20,32.8,24.3,16.2,26.5,18.9,12.2,90,80,59,30.02,29.78,10,2,14,0.03
2013-2-21,32.8,22.4,8.5,17.5,11.7,3.6,84,65,37,30.13,30.01,11,5,18,0.00
2013-2-22,39.5,31.3,24.3,24.2,18.1,14.3,72,59,42,30.08,29.70,16,9,27,0.00
2013-2-23,33.8,28.8,18.9,25.6,17.6,9.3,85,64,38,30.17,29.62,14,6,20,0.00
2013-2-24,36.6,25.1,10.4,14.9,11.1,4.9,82,57,36,30.35,30.17,16,6,20,0.00
2013-2-25,35.5,27.9,20.2,22.5,15.8,11.7,75,61,45,30.22,29.93,15,7,21,0.00
2013-2-26,38.2,26.8,19.1,16.3,13.2,9.6,75,58,36,30.34,30.07,15,5,21,0.00
2013-2-27,42.9,27.4,14.3,15.6,11.8,7.7,81,55,30,30.39,30.28,14,5,19,0.00
2013-2-28,45.1,33.5,15.9,28.2,20.8,10.6,83,60,44,30.40,30.32,9,4,14,0.00
2013-3-1,54.7,42.5,33.5,33.7,30.1,26.4,80,62,43,30.37,30.29,11,4,18,0.00
2013-3-2,57.8,41.6,31.2,30.9,27.2,24.2,81,60,28,30.31,29.86,12,4,18,0.00
2013-3-3,42.1,32.9,26.1,32.4,20.6,5.2,92,63,29,30.05,29.67,24,10,33,0.00
2013-3-4,31.0,22.1,13.0,19.3,13.5,7.5,94,71,44,30.39,30.05,14,3,19,0.01
2013-3-5,42.5,31.7,20.3,15.1,11.3,9.1,67,44,28,30.30,29.96,18,15,26,0.00
2013-3-6,51.4,37.9,30.9,31.2,22.7,14.9,82,56,33,29.96,29.60,17,8,25,0.00
2013-3-7,46.8,34.4,20.4,25.0,18.3,4.0,83,56,18,30.04,29.77,10,3,16,0.00
2013-3-8,44.6,28.5,15.0,22.2,15.5,9.1,90,62,24,30.10,29.95,9,3,13,0.00
2013-3-9,44.2,28.7,11.4,22.0,16.6,6.4,91,63,36,30.42,30.10,9,3,15,0.00
2013-3-10,52.8,33.0,13.8,27.0,17.1,9.7,91,59,23,30.47,30.19,15,5,19,0.00
2013-3-11,45.5,36.9,25.4,27.4,16.6,4.7,79,48,20,30.23,30.10,19,9,30,0.00
2013-3-12,53.6,38.2,21.5,30.4,22.7,11.0,69,54,39,30.24,30.08,12,4,21,0.00
2013-3-13,60.6,48.9,38.8,30.6,27.6,24.0,61,45,27,30.16,30.06,13,5,17,0.00
2013-3-14,62.0,47.7,32.4,30.6,26.8,22.3,75,47,27,30.12,29.91,14,5,19,0.00
2013-3-15,54.2,45.0,35.3,31.5,24.8,20.7,63,47,28,30.00,29.91,18,6,23,0.00
2013-3-16,52.4,40.1,28.8,28.1,23.4,18.7,83,55,29,29.99,29.59,11,4,16,0.00
2013-3-17,36.6,29.7,24.4,29.7,18.9,8.6,91,65,46,30.02,29.53,21,9,32,0.02
2013-3-18,37.8,28.2,21.4,22.4,13.3,7.2,90,55,30,30.10,29.97,20,8,27,0.00
2013-3-19,47.3,31.4,20.6,24.1,17.2,8.0,90,59,22,30.32,30.08,14,2,15,0.05
2013-3-20,56.2,41.4,31.8,33.5,24.9,11.2,88,54,33,30.08,29.50,26,10,29,0.00
2013-3-21,35.2,29.2,19.9,28.2,13.6,5.8,87,54,30,30.01,29.63,18,8,27,0.00
2013-3-22,33.7,22.3,13.7,20.4,13.6,7.8,85,70,40,30.28,30.00,15,4,16,0.00
2013-3-23,31.7,20.8,9.3,19.8,12.1,5.1,87,70,47,30.41,30.28,10,2,13,0.01
2013-3-24,37.0,23.1,10.5,15.2,9.4,5.7,85,60,30,30.46,30.31,6,2,10,0.00
2013-3-25,49.5,30.4,13.9,18.8,10.1,6.9,79,48,19,30.33,30.07,12,5,17,0.00
2013-3-26,53.6,39.2,26.8,25.1,21.1,17.6,76,52,26,30.07,29.89,8,2,12,0.00
2013-3-27,60.2,40.2,22.6,33.1,23.7,17.6,84,57,23,30.02,29.92,11,4,19,0.00
2013-3-28,59.9,42.4,26.0,34.9,29.4,22.9,93,64,31,30.08,29.97,18,4,20,0.00
2013-3-29,52.8,39.9,29.1,40.7,33.1,25.4,92,78,52,30.19,30.06,14,3,18,0.01
2013-3-30,59.5,42.6,26.0,34.9,27.5,21.4,93,60,27,30.25,30.09,8,2,11,0.00
2013-3-31,63.8,42.3,21.6,31.6,25.3,17.8,91,56,21,30.12,29.97,9,3,13,0.00
2013-4-1,65.7,43.5,22.4,31.8,26.1,19.0,91,56,24,30.04,29.90,9,3,12,0.00
2013-4-2,67.0,47.2,27.9,35.8,28.1,20.6,78,51,26,30.03,29.88,10,4,16,0.00
2013-4-3,62.0,46.9,31.0,34.4,29.3,24.8,85,54,27,30.03,29.94,10,2,15,0.00
2013-4-4,65.2,47.8,29.9,39.6,31.7,23.6,83,57,26,29.99,29.70,16,4,20,0.00
2013-4-5,57.7,47.3,40.2,36.8,32.2,24.8,78,57,30,29.83,29.67,19,7,25,0.00
2013-4-6,52.4,42.3,34.6,40.7,33.3,28.0,90,71,48,29.84,29.74,20,5,25,0.10
2013-4-7,51.2,37.8,30.2,38.7,31.6,26.5,93,79,53,29.83,29.53,20,5,24,0.06
2013-4-8,30.3,24.2,16.9,28.4,18.4,10.4,93,78,66,30.36,29.73,17,12,25,0.00
2013-4-9,44.7,25.5,7.3,23.0,12.6,3.2,86,62,27,30.54,30.31,8,2,12,0.01
2013-4-10,58.7,40.7,20.6,38.2,27.5,13.9,81,61,39,30.33,29.79,17,5,22,0.02
2013-4-11,51.1,42.2,32.4,34.1,25.4,17.7,82,54,27,29.99,29.85,19,10,27,0.00
2013-4-12,57.1,42.2,26.0,23.5,18.5,9.8,74,42,16,30.04,29.58,12,4,17,0.00
2013-4-13,47.1,37.7,26.2,33.1,20.5,8.0,78,52,25,29.69,29.36,25,11,33,0.01
2013-4-14,37.3,29.2,20.7,29.0,22.0,13.1,88,75,49,29.98,29.69,16,7,21,0.04
2013-4-15,33.5,24.6,17.1,15.4,13.3,11.0,81,63,45,30.20,29.97,20,11,25,0.00
2013-4-16,35.3,24.9,17.3,13.5,11.8,8.6,78,59,35,30.40,30.19,16,10,25,0.00
2013-4-17,41.7,25.3,8.2,18.1,8.3,3.3,90,55,22,30.47,30.35,11,3,16,0.00
2013-4-18,51.8,35.6,18.4,21.6,16.1,4.6,63,46,29,30.38,30.22,14,8,20,0.00
2013-4-19,54.1,42.8,34.0,35.3,29.1,20.9,85,59,39,30.23,29.81,17,6,23,0.00
2013-4-20,53.7,44.4,37.3,35.1,29.1,24.0,86,57,33,29.99,29.87,21,9,32,0.00
2013-4-21,46.8,35.8,19.3,33.2,25.7,16.3,89,68,49,30.22,29.89,20,9,29,0.00
2013-4-22,40.0,27.2,18.8,24.0,16.8,11.8,88,68,32,30.47,30.21,11,7,16,0.01
2013-4-23,44.9,31.9,15.5,22.2,17.0,10.2,82,57,33,30.46,30.24,11,5,17,0.00
2013-4-24,59.9,41.4,20.6,23.7,18.8,14.9,85,47,19,30.33,29.97,17,5,23,0.00
2013-4-25,62.9,48.5,33.9,26.2,21.6,16.6,60,37,21,30.00,29.81,17,6,25,0.00
2013-4-26,68.8,52.0,29.9,31.9,26.6,22.0,75,41,18,30.12,30.00,15,6,20,0.00
2013-4-27,71.2,56.7,41.7,32.3,26.2,19.8,63,35,15,30.07,29.82,18,9,28,0.00
2013-4-28,61.7,51.5,36.9,34.5,28.5,22.1,64,42,24,29.86,29.74,19,9,27,0.00
2013-4-29,51.4,42.1,29.2,37.0,27.6,20.1,84,57,39,29.82,29.51,21,9,31,0.03
2013-4-30,44.7,32.1,26.0,26.6,18.7,8.7,90,61,26,30.32,29.81,14,6,20,0.00
2013-5-1,48.6,34.3,19.3,28.3,20.0,14.7,89,60,28,30.66,30.32,11,3,17,0.01
2013-5-2,67.7,50.6,22.3,22.2,15.4,5.8,73,30,9,30.68,30.25,13,5,22,0.00
2013-5-3,53.2,45.9,40.3,39.0,29.2,15.6,88,54,31,30.25,30.09,13,5,17,0.01
2013-5-4,56.4,46.7,38.8,39.0,35.5,32.3,89,67,43,30.22,30.11,14,6,21,0.00
2013-5-5,71.4,50.5,26.7,38.0,32.4,23.6,94,56,26,30.12,29.87,8,2,14,0.00
2013-5-6,77.0,55.2,30.9,38.1,31.1,25.2,84,46,17,29.94,29.68,8,3,12,0.00
2013-5-7,72.6,54.9,37.7,40.2,33.6,27.6,70,47,23,29.92,29.73,19,6,24,0.00
2013-5-8,78.2,57.1,34.2,41.7,34.2,28.4,84,48,18,30.00,29.88,18,3,23,0.01
2013-5-9,78.4,57.0,39.7,42.8,36.2,30.7,78,49,20,30.04,29.91,15,5,19,0.00
2013-5-10,75.4,57.3,40.0,41.5,36.6,32.1,81,51,25,30.19,30.02,15,6,20,0.00
2013-5-11,78.8,60.5,38.2,39.3,34.8,30.4,76,43,20,30.20,29.95,13,4,19,0.00
2013-5-12,86.5,67.5,46.7,43.2,37.3,31.8,63,37,17,30.01,29.75,12,6,30,0.00
2013-5-13,86.1,66.3,45.2,46.7,37.3,23.0,74,41,12,29.83,29.48,21,8,31,0.00
2013-5-14,71.0,56.4,38.9,39.9,31.3,26.0,73,42,20,29.88,29.71,15,6,23,0.00
2013-5-15,71.5,54.0,37.9,40.9,32.0,24.7,72,45,24,29.93,29.73,17,4,18,0.00
2013-5-16,62.9,49.9,39.2,48.5,40.6,34.1,87,72,47,29.80,29.72,15,3,21,0.03
2013-5-17,50.8,46.4,41.5,48.0,42.4,37.6,93,86,73,29.87,29.77,7,1,12,0.15
2013-5-18,60.4,49.3,43.8,49.7,43.6,39.5,95,82,56,29.96,29.84,15,3,17,0.05
2013-5-19,53.5,48.7,43.9,41.3,39.3,37.6,83,71,58,30.11,29.95,13,4,19,0.00
2013-5-20,68.1,53.8,45.7,46.1,41.2,36.3,89,65,36,30.17,29.97,8,3,12,0.00
2013-5-21,70.9,53.0,36.9,47.0,39.9,33.5,92,65,31,29.98,29.56,19,6,22,0.01
2013-5-22,67.2,52.3,35.9,43.8,40.3,33.5,94,66,39,29.78,29.48,16,6,22,0.09
2013-5-23,44.9,35.6,32.3,38.3,32.5,30.8,95,89,71,30.03,29.78,8,2,11,0.22
2013-5-24,60.2,45.8,33.1,39.8,34.4,30.0,94,68,36,30.02,29.86,17,7,23,0.08
2013-5-25,62.1,46.9,30.8,43.1,37.4,28.1,94,72,42,29.95,29.83,12,3,17,0.10
2013-5-26,68.5,47.7,33.5,45.0,38.7,31.2,95,75,36,29.96,29.73,23,3,33,0.02
2013-5-27,63.9,50.2,39.9,47.6,42.3,36.8,94,77,42,29.87,29.68,13,2,18,0.02
2013-5-28,56.4,48.9,41.9,47.9,43.2,39.3,92,81,66,29.72,29.64,10,3,15,0.02
2013-5-29,65.6,51.2,41.9,47.3,42.2,38.8,93,74,41,29.72,29.51,15,3,22,0.02
2013-5-30,57.0,48.9,42.6,42.3,36.8,31.2,88,65,41,29.96,29.70,16,7,21,0.02
2013-5-31,57.1,47.4,38.7,38.1,33.9,30.8,80,60,45,30.23,29.95,15,7,21,0.01
2013-6-1,70.7,51.9,31.5,41.5,34.6,28.3,91,58,23,30.26,29.92,10,4,13,0.01
2013-6-2,63.5,49.0,40.9,50.2,41.9,37.0,92,77,45,29.92,29.70,12,2,15,0.01
2013-6-3,57.7,47.7,40.2,45.0,39.8,36.8,92,75,53,30.05,29.81,19,6,22,0.01
2013-6-4,62.7,49.6,40.0,41.4,37.8,34.8,92,67,41,30.16,30.06,9,4,13,0.00
2013-6-5,74.4,57.2,36.0,49.4,40.8,32.4,90,59,33,30.12,29.85,10,5,15,0.01
2013-6-6,81.8,63.7,46.1,51.8,44.3,38.4,77,53,26,29.93,29.76,10,3,13,0.01
2013-6-7,78.3,64.3,49.5,51.3,45.0,40.9,80,53,28,29.80,29.60,17,7,22,0.00
2013-6-8,77.8,65.0,49.1,43.9,36.4,29.9,67,37,20,29.80,29.69,14,6,21,0.00
2013-6-9,82.5,65.3,44.1,44.3,35.3,27.1,74,38,15,29.79,29.54,17,7,24,0.00
2013-6-10,78.3,61.7,39.2,46.6,37.8,27.4,73,43,28,29.70,29.50,13,4,21,0.00
2013-6-11,73.4,60.2,48.5,56.5,48.0,38.7,90,66,40,29.83,29.50,17,3,23,0.01
2013-6-12,72.0,58.5,42.9,58.8,50.2,40.7,96,76,49,29.85,29.68,15,6,25,0.02
2013-6-13,53.6,48.1,39.7,48.0,43.0,36.3,92,83,71,29.99,29.77,11,4,17,0.01
2013-6-14,60.2,48.5,37.7,42.3,35.9,30.6,100,65,33,30.08,29.95,14,5,19,0.01
2013-6-15,77.1,56.6,33.8,43.9,35.5,18.9,87,52,13,30.08,29.84,12,4,18,0.00
2013-6-16,79.5,61.7,38.9,47.4,40.1,32.6,81,50,27,29.96,29.84,16,5,19,0.01
2013-6-17,83.7,64.7,42.5,57.8,45.2,35.3,92,55,21,29.92,29.67,13,3,18,0.00
2013-6-18,87.6,66.4,46.7,53.2,45.2,28.3,87,53,15,29.74,29.41,20,7,30,0.00
2013-6-19,71.3,53.8,45.7,55.8,44.9,37.2,90,72,47,29.70,29.39,21,6,25,0.01
2013-6-20,62.6,50.4,43.2,42.3,37.6,33.8,87,63,38,29.99,29.70,19,9,22,0.02
2013-6-21,65.4,49.8,35.2,46.7,40.4,32.8,95,72,38,30.01,29.91,14,2,17,0.03
2013-6-22,65.3,52.5,44.0,49.6,42.4,37.3,92,71,41,29.98,29.88,12,2,14,0.01
2013-6-23,77.0,58.6,36.6,49.5,41.8,33.4,91,58,26,29.91,29.58,9,3,12,0.00
2013-6-24,76.7,58.9,48.1,53.1,47.4,41.3,92,69,33,29.59,29.37,21,3,22,0.03
2013-6-25,73.8,60.4,50.0,50.2,47.1,41.6,93,65,33,29.77,29.59,14,6,22,0.03
2013-6-26,70.0,59.9,52.3,56.3,49.7,45.9,84,70,48,29.98,29.74,12,4,18,0.01
2013-6-27,85.4,66.2,45.1,60.3,50.5,42.5,94,62,28,30.07,29.97,9,2,14,0.00
2013-6-28,89.2,70.6,48.3,59.2,52.7,44.3,87,57,32,30.08,29.91,9,3,13,0.00
2013-6-29,89.3,70.5,51.5,63.1,53.5,46.8,85,57,34,29.96,29.78,14,4,20,0.00
2013-6-30,91.8,73.5,54.6,64.4,56.5,49.3,88,58,33,29.88,29.80,9,3,13,0.00
2013-7-1,97.8,76.0,53.6,64.9,55.8,48.5,87,54,20,29.94,29.79,8,2,12,0.00
2013-7-2,97.8,77.5,55.7,65.8,56.4,49.9,82,52,23,29.86,29.67,9,3,13,0.00
2013-7-3,92.8,76.4,58.9,62.1,54.3,45.5,81,50,25,29.75,29.61,12,4,16,0.00
2013-7-4,89.2,71.0,51.1,58.8,48.4,38.5,81,48,21,29.71,29.52,13,4,18,0.00
2013-7-5,85.7,65.8,50.1,61.0,48.4,39.5,82,56,27,29.65,29.48,10,2,13,0.04
2013-7-6,86.5,65.1,43.5,54.3,48.2,40.3,92,60,26,29.78,29.59,10,3,13,0.03
2013-7-7,89.5,69.2,50.1,57.0,48.9,43.7,83,53,22,29.71,29.55,11,3,14,0.00
2013-7-8,81.3,65.4,50.1,61.6,49.5,38.3,85,58,37,29.90,29.67,13,4,18,0.03
2013-7-9,88.2,67.5,43.3,52.9,44.8,38.6,86,49,23,30.01,29.84,8,3,12,0.00
2013-7-10,96.0,73.2,48.7,56.1,42.3,34.5,69,39,12,29.91,29.56,12,5,18,0.00
2013-7-11,79.6,65.5,52.2,53.8,46.3,39.5,81,52,28,29.73,29.54,19,4,28,0.01
2013-7-12,85.1,66.5,49.5,50.1,45.9,38.8,86,53,21,29.73,29.59,20,6,28,0.01
2013-7-13,82.0,63.0,42.5,49.9,42.9,35.2,90,53,27,29.95,29.70,12,5,17,0.00
2013-7-14,51.3,46.6,42.7,36.7,35.6,34.4,77,66,53,29.99,29.95,3,1,5,0.00
2013-7-15,94.7,82.2,61.1,52.0,42.0,31.6,62,27,11,29.81,29.63,15,7,24,0.00
2013-7-16,89.8,67.2,46.1,60.0,51.3,40.6,91,60,30,29.95,29.72,12,3,13,0.01
2013-7-17,93.6,71.1,59.8,65.9,58.6,47.9,91,68,34,29.91,29.70,25,5,39,0.04
2013-7-18,89.0,71.0,52.5,59.1,50.7,39.7,94,56,21,29.95,29.83,6,2,11,0.02
2013-7-19,90.5,69.8,48.1,53.1,44.3,38.4,70,44,18,29.92,29.75,10,4,14,0.00
2013-7-20,92.0,69.5,45.3,53.2,43.2,34.4,71,42,18,29.83,29.61,7,3,11,0.00
2013-7-21,93.8,70.5,45.1,53.4,38.6,30.9,63,36,12,29.73,29.57,9,3,16,0.00
2013-7-22,89.8,70.0,47.9,49.3,34.2,19.2,53,31,9,29.78,29.67,15,5,23,0.00
2013-7-23,92.8,70.9,46.9,50.9,39.0,30.6,55,34,17,29.89,29.76,7,4,11,0.00
2013-7-24,95.6,71.5,47.7,52.7,40.9,29.3,56,36,16,29.85,29.70,9,4,13,0.00
2013-7-25,94.0,72.3,48.3,64.7,49.3,38.9,83,49,18,29.91,29.76,7,2,11,0.00
2013-7-26,95.0,73.7,49.2,53.6,42.8,31.0,73,38,13,29.93,29.75,14,4,21,0.00
2013-7-27,92.1,71.6,53.9,50.8,38.1,21.8,54,33,13,29.81,29.60,13,4,19,0.00
2013-7-28,83.3,65.2,47.8,59.1,42.0,32.6,65,44,23,29.69,29.55,6,1,9,0.01
2013-7-29,82.2,65.5,48.3,56.1,48.8,42.8,85,57,32,29.81,29.66,8,3,13,0.00
2013-7-30,75.4,59.6,42.8,55.5,45.6,37.3,86,62,36,30.06,29.81,13,2,18,0.00
2013-7-31,93.5,68.0,42.9,52.2,41.0,33.0,82,44,12,30.09,29.82,9,3,13,0.00
2013-8-1,78.5,58.7,50.9,56.5,48.0,37.6,92,69,42,29.83,29.68,15,4,22,0.07
2013-8-2,72.7,64.1,50.1,55.9,50.0,45.1,84,61,45,29.97,29.85,12,6,16,0.08
2013-8-3,80.7,61.6,44.9,55.0,48.1,42.2,95,65,32,30.00,29.86,11,3,14,0.03
2013-8-4,84.5,64.7,43.9,53.2,46.0,40.6,91,57,25,29.96,29.80,8,3,13,0.01
2013-8-5,84.2,65.7,45.3,57.9,44.1,38.5,80,50,22,29.89,29.70,14,5,17,0.01
2013-8-6,84.0,65.7,44.8,52.4,45.2,38.7,82,51,29,29.87,29.77,9,3,14,0.00
2013-8-7,87.7,65.0,46.7,50.4,42.8,38.1,73,49,21,29.84,29.70,7,3,10,0.00
2013-8-8,86.6,65.8,44.3,54.6,46.1,37.2,78,52,29,29.87,29.74,11,3,15,0.00
2013-8-9,81.6,63.9,50.8,58.8,51.6,43.8,88,67,34,29.91,29.74,16,2,19,0.10
2013-8-10,79.5,61.2,46.9,60.2,49.7,44.1,93,69,32,29.93,29.82,13,2,16,0.12
2013-8-11,83.4,62.4,48.5,55.6,48.1,40.3,85,62,29,29.93,29.81,16,3,19,0.03
2013-8-12,80.3,60.4,44.5,55.5,47.8,39.9,90,66,30,30.02,29.86,18,4,32,0.02
2013-8-13,86.6,62.9,44.5,55.8,47.7,41.0,90,62,24,30.03,29.85,11,2,16,0.02
2013-8-14,87.3,65.2,45.5,54.6,47.6,40.5,86,58,27,29.97,29.80,8,3,11,0.01
2013-8-15,95.2,69.8,45.4,57.7,42.2,31.0,75,43,12,29.87,29.70,11,3,16,0.00
2013-8-16,94.6,69.8,49.4,53.3,39.5,20.3,59,37,7,29.81,29.70,15,4,21,0.00
2013-8-17,89.4,67.5,46.1,54.5,46.0,38.2,79,50,18,29.90,29.70,7,2,10,0.00
2013-8-18,89.3,70.3,50.0,56.2,46.8,41.5,79,47,20,29.87,29.73,13,3,18,0.00
2013-8-19,91.5,70.8,50.3,48.5,39.6,29.3,67,38,12,29.85,29.70,17,5,23,0.00
2013-8-20,88.9,67.2,42.9,50.2,40.3,33.3,71,42,18,29.84,29.70,12,4,23,0.00
2013-8-21,89.3,65.4,43.3,51.1,41.8,35.1,75,46,21,29.92,29.77,6,2,12,0.00
2013-8-22,84.8,65.6,46.9,55.0,45.0,34.5,76,50,27,29.91,29.70,16,4,20,0.00
2013-8-23,81.9,68.8,52.9,53.5,47.9,43.9,87,51,29,29.75,29.56,17,7,22,0.01
2013-8-24,87.4,66.4,46.7,52.2,45.5,36.2,86,52,17,29.77,29.60,16,4,22,0.00
2013-8-25,85.4,68.1,56.7,53.3,46.5,40.8,72,48,23,29.78,29.63,18,8,26,0.00
2013-8-26,87.2,67.8,51.1,54.7,48.4,41.8,84,55,21,29.85,29.70,14,3,18,0.01
2013-8-27,88.3,68.6,49.3,53.3,45.7,38.9,86,50,19,29.84,29.69,16,5,25,0.00
2013-8-28,82.5,64.3,51.4,59.1,50.4,41.9,88,62,35,29.86,29.71,17,5,21,0.05
2013-8-29,89.5,68.8,53.1,57.4,49.9,38.3,89,59,17,29.91,29.73,18,5,21,0.03
2013-8-30,86.7,66.1,48.1,57.3,50.7,44.8,93,64,26,29.89,29.77,10,4,14,0.01
2013-8-31,85.0,74.2,53.1,51.8,46.3,39.6,63,39,26,29.94,29.81,8,4,12,0.00
2013-9-1,94.8,68.2,45.3,54.8,41.3,32.3,76,44,13,29.90,29.68,9,2,12,0.00
2013-9-2,84.5,68.0,52.2,51.4,42.3,36.2,60,41,21,29.79,29.67,14,5,19,0.00
2013-9-3,87.9,65.3,53.4,58.0,51.4,43.6,92,64,30,29.95,29.78,17,2,23,0.01
2013-9-4,89.2,68.4,53.2,59.8,54.1,48.7,95,65,29,29.95,29.84,10,2,14,0.02
2013-9-5,84.2,64.7,52.7,59.9,53.7,47.1,92,70,36,29.90,29.76,19,4,27,0.02
2013-9-6,80.9,63.8,48.9,66.4,56.7,47.0,96,79,47,29.89,29.73,8,2,10,0.05
2013-9-7,82.7,65.9,55.3,61.7,55.0,46.3,93,71,33,29.89,29.70,19,3,20,0.02
2013-9-8,76.0,58.1,45.7,56.6,48.3,40.6,96,72,31,29.87,29.75,15,5,22,0.00
2013-9-9,76.4,59.3,47.4,49.8,44.5,39.9,81,60,35,29.94,29.86,9,2,12,0.00
2013-9-10,82.6,60.7,41.8,50.1,43.1,37.3,91,58,22,30.02,29.88,6,2,7,0.00
2013-9-11,85.2,62.3,40.0,51.0,42.6,34.7,87,54,18,30.10,29.98,10,3,13,0.00
2013-9-12,82.8,65.1,45.0,52.2,45.8,40.6,89,54,29,30.08,29.82,11,4,16,0.00
2013-9-13,85.4,66.4,54.7,55.0,50.4,45.8,85,59,30,29.82,29.57,15,4,17,0.01
2013-9-14,76.7,61.9,50.4,56.3,50.3,43.3,94,69,35,29.91,29.70,15,4,20,0.01
2013-9-15,79.3,62.8,46.3,52.4,48.5,41.6,94,63,34,29.93,29.71,17,5,21,0.00
2013-9-16,82.8,67.8,53.5,52.7,48.2,41.6,82,53,24,29.75,29.52,18,7,23,0.00
2013-9-17,58.0,49.6,38.9,53.7,45.5,35.8,95,86,61,29.67,29.53,12,3,19,0.03
2013-9-18,59.6,50.1,43.7,45.2,39.9,34.0,93,70,43,30.01,29.60,15,6,20,0.03
2013-9-19,68.3,52.3,39.7,38.5,35.3,31.6,80,55,29,30.12,29.95,8,2,13,0.02
2013-9-20,74.7,57.0,37.3,36.9,31.6,24.6,81,45,18,29.99,29.64,16,9,22,0.01
2013-9-21,78.6,61.0,42.4,36.1,28.7,24.0,60,31,17,29.64,29.42,15,8,19,0.00
2013-9-22,61.4,50.8,42.0,47.5,43.6,38.9,91,78,53,29.66,29.46,12,4,17,0.01
2013-9-23,62.7,48.5,40.4,42.0,37.1,32.1,91,68,35,29.92,29.65,16,4,23,0.03
2013-9-24,51.2,41.4,33.9,43.3,37.5,30.2,93,86,69,29.91,29.72,9,2,13,0.02
2013-9-25,46.7,40.1,35.5,43.7,37.8,33.8,96,92,78,29.75,29.60,15,5,20,0.04
2013-9-26,42.7,36.9,28.6,36.3,33.1,26.0,94,86,70,30.05,29.75,15,7,23,0.03
2013-9-27,48.7,38.1,26.1,35.3,29.9,23.6,94,74,50,30.10,29.98,13,3,15,0.45
2013-9-28,59.0,48.7,42.5,42.3,37.4,32.7,76,65,51,29.98,29.71,17,8,24,0.00
2013-9-29,54.3,46.9,40.4,42.3,38.3,36.0,88,72,54,29.71,29.48,20,5,27,0.10
2013-9-30,54.6,44.4,38.0,40.7,33.6,26.4,94,69,36,29.90,29.46,18,7,26,0.09
2013-10-1,53.4,43.3,34.0,37.0,31.7,26.6,85,64,42,30.01,29.88,12,6,16,0.00
2013-10-2,53.2,40.9,28.2,35.0,30.2,25.2,93,68,38,30.13,29.89,10,1,13,0.01
2013-10-3,40.2,33.8,31.5,32.3,29.9,27.2,93,85,68,30.39,29.89,19,13,28,0.02
2013-10-4,50.0,36.7,30.2,30.3,28.4,26.3,91,74,42,30.56,30.39,7,2,11,0.00
2013-10-5,59.9,40.4,26.1,33.1,27.8,22.5,88,65,31,30.48,30.33,11,4,15,0.00
2013-10-6,70.0,55.0,33.5,34.4,31.7,28.1,88,45,23,30.34,29.91,17,9,25,0.00
2013-10-7,69.7,56.3,43.4,32.0,28.3,22.7,62,36,17,29.92,29.57,17,10,24,0.00
2013-10-8,52.4,41.2,28.3,33.8,27.4,23.1,85,60,33,29.95,29.68,14,3,17,0.00
2013-10-9,59.5,40.5,25.9,33.7,28.7,22.4,94,67,33,30.07,29.85,5,1,7,0.00
2013-10-10,53.5,38.1,23.5,36.3,28.5,20.3,95,71,35,29.92,29.77,13,4,18,0.00
2013-10-11,53.8,41.3,28.3,32.4,25.8,20.6,82,57,28,30.04,29.91,10,3,18,0.00
2013-10-12,53.0,35.5,23.3,29.9,25.0,19.0,89,68,39,30.14,30.02,8,2,11,0.00
2013-10-13,51.0,35.9,23.3,35.2,28.5,20.0,94,76,52,30.25,30.11,10,2,14,0.00
2013-10-14,49.3,37.9,27.5,35.6,29.3,22.0,91,72,47,30.43,30.25,11,3,17,0.00
2013-10-15,55.5,34.5,19.7,28.9,23.0,16.0,91,67,31,30.46,30.23,6,2,9,0.00
2013-10-16,47.8,34.1,20.6,32.3,25.4,15.5,90,72,39,30.24,30.13,11,3,15,0.00
2013-10-17,49.2,37.3,27.4,34.8,30.1,23.4,92,77,49,30.30,30.17,9,2,14,0.00
2013-10-18,58.9,38.0,24.2,30.7,25.6,21.0,91,66,25,30.32,30.13,9,3,13,0.00
2013-10-19,60.5,40.8,19.9,32.3,24.6,15.9,93,58,29,30.17,30.00,14,3,18,0.00
2013-10-20,58.7,44.1,31.6,33.4,29.4,25.6,82,58,36,30.12,29.98,7,2,11,0.00
2013-10-21,60.7,41.1,27.5,36.0,30.3,24.1,92,69,37,30.25,30.12,6,2,10,0.00
2013-10-22,64.9,41.0,25.0,36.7,30.2,21.9,95,69,33,30.24,30.13,7,2,11,0.00
2013-10-23,63.3,41.6,26.0,33.4,26.8,21.5,85,60,26,30.22,30.12,7,3,9,0.00
2013-10-24,67.3,43.7,28.3,33.4,27.6,22.5,82,58,25,30.23,30.07,10,4,15,0.00
2013-10-25,63.7,41.2,26.1,32.5,26.2,21.4,90,60,26,30.32,30.14,8,3,11,0.00
2013-10-26,61.6,39.4,21.4,31.3,24.2,17.6,91,58,27,30.33,30.13,7,3,11,0.00
2013-10-27,63.7,41.0,28.5,29.8,24.3,20.3,72,55,22,30.13,29.69,18,8,31,0.00
2013-10-28,29.0,21.2,18.2,21.9,15.2,12.1,86,77,69,30.26,30.04,17,11,25,0.00
2013-10-29,41.1,24.7,9.5,25.1,16.6,6.0,90,73,49,30.23,30.04,9,2,12,0.00
2013-10-30,46.1,29.7,11.8,28.5,20.3,8.2,94,70,46,30.11,30.01,11,3,15,0.00
2013-10-31,47.0,39.0,35.7,36.3,28.8,23.8,87,67,52,30.09,29.91,13,4,18,0.01
2013-11-1,50.1,38.3,24.6,32.6,27.8,19.9,90,68,42,30.24,30.08,14,4,20,0.00
2013-11-2,57.9,38.6,24.0,36.0,27.9,20.7,94,69,27,30.12,29.63,18,6,26,0.03
2013-11-3,36.2,30.9,22.6,24.1,19.2,13.6,76,62,45,29.99,29.70,12,4,18,0.00
2013-11-4,39.4,25.8,18.1,21.9,17.2,13.0,89,72,42,30.21,29.98,11,2,15,0.00
2013-11-5,39.1,27.2,15.4,24.3,16.4,8.4,86,65,37,30.29,30.20,12,5,18,0.00
2013-11-6,45.3,35.8,28.1,27.0,23.2,17.2,85,62,34,30.36,30.18,16,5,30,0.00
2013-11-7,49.2,39.0,30.5,37.9,31.5,24.6,88,75,60,30.34,29.67,22,7,27,0.11
2013-11-8,41.3,35.2,28.2,30.8,26.5,20.3,79,71,59,30.17,29.82,11,4,18,0.01
2013-11-9,47.6,32.4,20.3,27.7,22.8,15.6,89,69,41,30.29,30.16,8,1,11,0.00
2013-11-10,58.5,39.9,26.0,36.9,30.0,22.6,91,70,39,30.22,30.09,13,3,19,0.00
2013-11-11,54.5,38.0,27.8,38.0,31.1,25.2,93,78,46,30.43,30.17,8,2,13,0.00
2013-11-12,66.5,47.8,32.9,32.1,28.0,23.9,85,50,21,30.42,30.19,17,8,21,0.00
2013-11-13,52.3,41.7,34.0,37.0,28.4,22.4,84,61,36,30.22,30.11,18,5,22,0.00
2013-11-14,45.8,33.1,21.8,26.7,22.4,17.0,87,66,44,30.20,29.83,10,3,13,0.00
2013-11-15,42.7,35.1,25.4,24.4,19.6,15.9,84,54,39,29.83,29.37,12,4,17,0.00
2013-11-16,37.6,32.2,24.0,27.4,20.7,13.4,76,63,45,29.64,29.25,15,7,18,0.00
2013-11-17,39.3,31.1,23.9,24.3,19.5,15.0,75,62,45,30.03,29.64,15,6,16,0.00
2013-11-18,49.7,40.1,31.7,19.7,16.6,13.9,59,40,25,30.05,29.75,15,11,20,0.00
2013-11-19,49.5,43.5,38.8,34.2,29.2,18.7,78,58,39,29.76,29.57,17,10,25,0.00
2013-11-20,40.4,29.3,7.3,34.0,19.6,0.9,86,68,39,30.34,29.59,13,5,22,0.00
2013-11-21,30.0,12.7,0.0,12.0,3.4,-4.7,93,68,35,30.84,30.34,5,1,6,0.00
2013-11-22,32.2,15.3,2.2,11.7,5.8,-2.2,89,68,40,30.91,30.81,7,2,9,0.00
2013-11-23,36.3,18.5,7.5,17.5,9.3,2.9,92,69,44,30.85,30.49,12,2,15,0.00
2013-11-24,39.1,22.4,8.5,21.1,13.5,4.5,92,71,42,30.51,30.37,6,1,9,0.00
2013-11-25,45.1,27.8,13.5,22.9,17.3,9.3,90,66,39,30.52,30.40,4,1,6,0.00
2013-11-26,55.7,33.3,17.7,26.9,20.5,12.4,91,64,29,30.52,30.19,10,3,12,0.00
2013-11-27,50.1,29.6,17.1,28.2,20.0,13.5,92,70,39,30.21,30.12,7,2,12,0.00
2013-11-28,42.3,25.5,15.0,25.6,18.1,10.9,93,75,47,30.28,30.19,9,2,12,0.00
2013-11-29,49.7,31.7,16.9,25.0,20.0,13.2,89,65,36,30.32,30.19,11,3,15,0.00
2013-11-30,45.1,38.0,32.3,32.1,28.3,22.7,78,68,55,30.26,30.15,10,2,17,0.00
2013-12-1,42.3,39.8,36.2,35.0,31.8,28.4,85,73,66,30.15,29.64,15,8,22,0.00
2013-12-2,43.7,30.9,10.3,34.9,25.2,3.2,89,79,64,29.87,29.45,16,6,19,0.01
2013-12-3,10.2,3.9,-6.0,3.2,-4.2,-11.3,77,69,56,30.49,29.87,13,7,17,0.00
2013-12-4,8.4,-4.0,-12.0,-0.7,-10.7,-18.2,83,73,54,30.61,30.48,10,2,14,0.00
2013-12-5,9.6,-5.5,-14.5,-3.3,-12.8,-20.7,92,71,53,30.65,30.54,9,2,12,0.00
2013-12-6,2.0,-9.5,-17.6,-6.7,-15.7,-23.3,89,74,58,30.72,30.63,7,1,10,0.00
2013-12-7,0.8,-11.3,-22.3,-10.0,-18.4,-28.7,80,71,54,30.69,30.47,3,0,7,0.00
2013-12-8,3.1,-10.2,-22.7,-3.4,-15.8,-28.8,81,76,70,30.77,30.58,9,2,13,0.00
2013-12-9,21.0,4.4,-17.9,12.9,-1.2,-23.6,92,77,69,30.78,30.49,13,3,20,0.00
2013-12-10,31.7,21.2,14.8,17.9,14.4,11.1,87,75,51,30.49,30.33,14,5,22,0.00
2013-12-11,29.5,21.4,10.7,17.6,13.3,6.0,85,71,60,30.50,30.44,11,5,15,0.01
2013-12-12,40.1,29.4,18.9,20.3,16.9,11.7,78,60,43,30.46,30.11,17,8,20,0.00
2013-12-13,39.0,31.7,25.5,27.1,22.6,17.3,90,69,58,30.36,30.08,15,6,21,0.00
2013-12-14,41.8,35.0,29.7,28.5,24.7,19.6,80,66,42,30.40,30.20,13,5,21,0.00
2013-12-15,49.5,42.4,36.2,27.7,22.1,16.2,56,45,34,30.23,30.08,16,9,22,0.00
2013-12-16,50.7,38.8,23.3,24.0,18.6,14.9,76,46,27,30.33,30.11,16,6,26,0.00
2013-12-17,53.6,40.7,26.2,21.1,18.1,15.7,66,42,26,30.33,29.90,20,8,24,0.00
2013-12-18,49.5,39.5,29.3,27.4,20.2,16.4,87,48,27,29.89,29.64,11,5,18,0.00
2013-12-19,29.3,10.0,-3.9,25.8,4.9,-8.7,88,80,63,30.26,29.69,14,3,17,0.02
2013-12-20,27.8,17.5,2.9,21.1,11.1,-0.1,92,77,55,30.25,29.73,13,5,19,0.00
2013-12-21,33.2,25.6,20.2,24.6,20.3,17.2,90,81,63,30.08,29.72,9,3,14,0.00
2013-12-22,35.4,28.1,23.3,29.6,23.4,18.3,90,82,72,30.29,30.05,7,2,10,0.00
2013-12-23,44.2,36.6,26.1,34.3,30.1,22.5,89,77,65,30.29,29.90,23,6,26,0.04
2013-12-24,35.7,29.4,19.1,24.2,18.3,12.7,79,63,48,30.52,30.08,15,7,20,0.00
2013-12-25,40.7,22.2,9.0,18.0,12.0,4.2,88,67,32,30.60,30.42,9,2,14,0.00
2013-12-26,50.0,38.1,21.8,29.2,23.1,13.2,79,56,43,30.49,30.28,12,5,19,0.00
2013-12-27,54.2,40.8,28.0,25.3,21.0,17.0,72,46,26,30.28,29.93,13,8,18,0.00
2013-12-28,40.8,30.4,20.9,25.6,20.6,16.3,89,68,39,30.37,29.93,13,3,19,0.00
2013-12-29,35.4,28.3,19.4,23.9,17.4,11.6,76,64,45,30.41,30.19,15,6,21,0.00
2013-12-30,44.3,35.6,25.4,30.4,25.5,20.0,84,67,47,30.27,30.01,11,5,19,0.00
2013-12-31,41.6,37.9,33.4,31.2,28.7,23.3,89,70,61,30.14,29.93,13,6,18,0.00
2014-1-1,39.2,29.9,17.9,24.0,19.5,13.9,87,66,44,30.39,30.14,14,4,19,0.00
2014-1-2,43.7,33.9,20.7,24.5,19.6,15.1,81,58,36,30.38,29.88,16,9,24,0.00